Location: Lower Kingswood
(51.2667°N, 0.2167°W)
Time: 11:37:47
(UTC+00:00)

BlueWalker 3 - Pass Details

Date: 26 September 2023
Orbit: 489 x 504 km, 53.2° (Epoch: 28 November)

Event Time Altitude Azimuth Distance (km) Brightness Sun altitude
Exits shadow 04:53:38 11° 287° (WNW) 1,627 4.0 -10.0°
Maximum altitude 04:57:18 81° 15° (NNE) 515 2.0 -9.5°
Drops below altitude 10° 05:01:11 10° 103° (ESE) 1,717 5.9 -8.9°
Sets 05:03:23 0° 105° (ESE) 2,604 7.0 -8.5°
